TimeEST,TemperatureF,Dew PointF,Humidity,Sea Level PressureIn,VisibilityMPH,Wind Direction,Wind SpeedMPH,Gust SpeedMPH,PrecipitationIn,Events,Conditions,WindDirDegrees,DateUTC
12:15 AM,24.8,3.2,40,30.53,10.0,NNW,4.6,-,N/A,,Clear,330,2013-01-25 05:15:00
12:35 AM,24.8,3.2,40,30.54,10.0,NW,4.6,-,N/A,,Clear,320,2013-01-25 05:35:00
12:55 AM,24.8,3.2,40,30.52,10.0,NNW,4.6,-,N/A,,Clear,330,2013-01-25 05:55:00
1:15 AM,24.8,5.0,43,30.52,10.0,NNW,3.5,-,N/A,,Clear,330,2013-01-25 06:15:00
1:35 AM,24.8,5.0,43,30.52,10.0,Calm,Calm,-,N/A,,Clear,0,2013-01-25 06:35:00
1:55 AM,23.0,6.8,50,30.52,10.0,NNW,4.6,-,N/A,,Clear,330,2013-01-25 06:55:00
2:15 AM,21.2,8.6,58,30.51,10.0,Calm,Calm,-,N/A,,Clear,0,2013-01-25 07:15:00
2:35 AM,19.4,10.4,68,30.51,10.0,Calm,Calm,-,N/A,,Clear,0,2013-01-25 07:35:00
2:55 AM,19.4,12.2,74,30.52,10.0,Calm,Calm,-,N/A,,Clear,0,2013-01-25 07:55:00
3:15 AM,19.4,10.4,68,30.52,10.0,Calm,Calm,-,N/A,,Clear,0,2013-01-25 08:15:00
3:35 AM,17.6,12.2,79,30.50,10.0,Calm,Calm,-,N/A,,Clear,0,2013-01-25 08:35:00
3:55 AM,17.6,12.2,79,30.51,10.0,Calm,Calm,-,N/A,,Clear,0,2013-01-25 08:55:00
4:15 AM,17.6,12.2,79,30.51,10.0,Calm,Calm,-,N/A,,Clear,0,2013-01-25 09:15:00
4:35 AM,17.6,12.2,79,30.51,10.0,Calm,Calm,-,N/A,,Clear,0,2013-01-25 09:35:00
4:55 AM,17.6,12.2,79,30.50,10.0,Calm,Calm,-,N/A,,Clear,0,2013-01-25 09:55:00
5:15 AM,17.6,12.2,79,30.50,10.0,Calm,Calm,-,N/A,,Clear,0,2013-01-25 10:15:00
5:35 AM,17.6,12.2,79,30.52,10.0,Calm,Calm,-,N/A,,Clear,0,2013-01-25 10:35:00
5:55 AM,17.6,12.2,79,30.53,10.0,Calm,Calm,-,N/A,,Clear,0,2013-01-25 10:55:00
6:15 AM,17.6,12.2,79,30.53,10.0,Calm,Calm,-,N/A,,Clear,0,2013-01-25 11:15:00
6:35 AM,17.6,12.2,79,30.52,10.0,Calm,Calm,-,N/A,,Clear,0,2013-01-25 11:35:00
6:55 AM,17.6,12.2,79,30.51,10.0,Calm,Calm,-,N/A,,Clear,0,2013-01-25 11:55:00
7:15 AM,17.6,12.2,79,30.52,10.0,Calm,Calm,-,N/A,,Clear,0,2013-01-25 12:15:00
7:35 AM,17.6,14.0,86,30.51,10.0,Calm,Calm,-,N/A,,Clear,0,2013-01-25 12:35:00
7:55 AM,17.6,15.8,93,30.51,10.0,Calm,Calm,-,N/A,,Clear,0,2013-01-25 12:55:00
8:35 AM,21.2,15.8,80,30.50,10.0,Calm,Calm,-,N/A,,Clear,0,2013-01-25 13:35:00
8:55 AM,24.8,15.8,69,30.50,10.0,Calm,Calm,-,N/A,,Clear,0,2013-01-25 13:55:00
9:15 AM,24.8,12.2,59,30.50,10.0,NNW,3.5,-,N/A,,Clear,330,2013-01-25 14:15:00
9:35 AM,26.6,12.2,55,30.48,10.0,Calm,Calm,-,N/A,,Clear,0,2013-01-25 14:35:00
9:55 AM,26.6,12.2,55,30.47,10.0,Calm,Calm,-,N/A,,Clear,0,2013-01-25 14:55:00
10:15 AM,26.6,12.2,55,30.45,10.0,NE,4.6,-,N/A,,Clear,40,2013-01-25 15:15:00
10:35 AM,26.6,12.2,55,30.44,10.0,Calm,Calm,-,N/A,,Clear,0,2013-01-25 15:35:00
10:55 AM,28.4,12.2,51,30.45,10.0,Calm,Calm,-,N/A,,Clear,0,2013-01-25 15:55:00
11:15 AM,28.4,12.2,51,30.44,10.0,Calm,Calm,-,N/A,,Clear,0,2013-01-25 16:15:00
11:35 AM,28.4,14.0,55,30.41,10.0,South,4.6,-,N/A,,Clear,170,2013-01-25 16:35:00
11:55 AM,28.4,14.0,55,30.38,10.0,Calm,Calm,-,N/A,,Scattered Clouds,0,2013-01-25 16:55:00
12:15 PM,30.2,15.8,55,30.38,10.0,WSW,3.5,-,N/A,,Mostly Cloudy,240,2013-01-25 17:15:00
12:35 PM,30.2,15.8,55,30.35,10.0,South,3.5,-,N/A,,Overcast,170,2013-01-25 17:35:00
12:55 PM,30.2,15.8,55,30.35,10.0,Calm,Calm,-,N/A,,Overcast,0,2013-01-25 17:55:00
1:15 PM,30.2,15.8,55,30.33,10.0,Calm,Calm,-,N/A,,Mostly Cloudy,0,2013-01-25 18:15:00
1:35 PM,28.4,15.8,59,30.31,10.0,Calm,Calm,-,N/A,,Overcast,0,2013-01-25 18:35:00
2:15 PM,30.2,15.8,55,30.28,10.0,South,3.5,-,N/A,,Overcast,170,2013-01-25 19:15:00
2:35 PM,30.2,17.6,60,30.28,10.0,South,6.9,-,N/A,,Overcast,180,2013-01-25 19:35:00
2:55 PM,30.2,17.6,60,30.28,10.0,South,3.5,-,N/A,,Overcast,170,2013-01-25 19:55:00
3:15 PM,28.4,21.2,74,30.27,0.8,South,6.9,-,N/A,Snow,Light Snow,170,2013-01-25 20:15:00
3:35 PM,26.6,24.8,93,30.24,0.5,SSE,5.8,-,N/A,Snow,Snow,160,2013-01-25 20:35:00
3:55 PM,26.6,24.8,93,30.23,0.2,South,6.9,-,N/A,Snow,Snow,190,2013-01-25 20:55:00
4:15 PM,26.6,24.8,93,30.22,0.2,SSW,6.9,-,N/A,Snow,Snow,200,2013-01-25 21:15:00
4:35 PM,26.6,24.8,93,30.21,0.5,SSW,5.8,-,N/A,Snow,Snow,200,2013-01-25 21:35:00
4:55 PM,26.6,24.8,93,30.21,1.2,Calm,Calm,-,N/A,Snow,Light Snow,0,2013-01-25 21:55:00
5:15 PM,26.6,24.8,93,30.21,1.5,Calm,Calm,-,0.02,Snow,Light Snow,0,2013-01-25 22:15:00
5:35 PM,26.6,24.8,93,30.19,1.5,Calm,Calm,-,0.04,Snow,Light Snow,0,2013-01-25 22:35:00
5:55 PM,26.6,24.8,93,30.18,1.5,Calm,Calm,-,0.02,Snow,Light Snow,0,2013-01-25 22:55:00
6:15 PM,26.6,24.8,93,30.17,2.0,Calm,Calm,-,0.06,Snow,Light Snow,0,2013-01-25 23:15:00
6:35 PM,26.6,24.8,93,30.17,2.5,Calm,Calm,-,0.07,Snow,Light Snow,0,2013-01-25 23:35:00
6:55 PM,26.6,24.8,93,30.17,2.5,Calm,Calm,-,0.01,,Overcast,0,2013-01-25 23:55:00
7:15 PM,26.6,24.8,93,30.16,1.8,Calm,Calm,-,0.02,Snow,Light Snow,0,2013-01-26 00:15:00
7:35 PM,26.6,24.8,93,30.15,2.0,Calm,Calm,-,0.03,Snow,Light Snow,0,2013-01-26 00:35:00
7:55 PM,26.6,24.8,93,30.14,2.5,Calm,Calm,-,0.01,Snow,Light Snow,0,2013-01-26 00:55:00
8:15 PM,26.6,24.8,93,30.12,5.0,South,3.5,-,0.01,Snow,Light Snow,190,2013-01-26 01:15:00
8:35 PM,26.6,24.8,93,30.13,10.0,West,3.5,-,0.02,,Overcast,260,2013-01-26 01:35:00
8:55 PM,26.6,24.8,93,30.11,10.0,Calm,Calm,-,N/A,,Overcast,0,2013-01-26 01:55:00
9:15 PM,26.6,24.8,93,30.12,10.0,West,3.5,-,N/A,,Overcast,260,2013-01-26 02:15:00
9:35 PM,26.6,24.8,93,30.12,10.0,SW,3.5,-,N/A,,Overcast,230,2013-01-26 02:35:00
9:55 PM,26.6,24.8,93,30.12,10.0,WSW,4.6,-,0.01,,Overcast,250,2013-01-26 02:55:00
10:15 PM,26.6,24.8,93,30.12,10.0,SW,3.5,-,0.01,,Overcast,230,2013-01-26 03:15:00
10:35 PM,26.6,24.8,93,30.12,10.0,West,4.6,-,0.01,,Overcast,260,2013-01-26 03:35:00
10:55 PM,26.6,24.8,93,30.11,10.0,WSW,3.5,-,N/A,,Overcast,250,2013-01-26 03:55:00
11:15 PM,24.8,23.0,93,30.11,10.0,Calm,Calm,-,N/A,,Mostly Cloudy,0,2013-01-26 04:15:00
11:35 PM,23.0,23.0,100,30.11,10.0,Calm,Calm,-,N/A,,Scattered Clouds,0,2013-01-26 04:35:00
11:55 PM,21.2,21.2,100,30.12,10.0,WSW,3.5,-,N/A,,Mostly Cloudy,250,2013-01-26 04:55:00